When you browse on this site, cookies collect data to enhance your experience and personalize the content and advertising you see.
Visit our Privacy Policy to learn more. By continuing to use the site, you agree to this use of cookies and data.
  • In Hungary
  • List of Countries
  • For 7 days
  • Water Temperature
  • Weather Map
  • News
  • Weather Widgets
  • user-avatar
    Login

    Hourly Weather Heredia

    Today, 19 November, Tuesday

    Time Temperature Precipitation Wind Pressure Humidity
    00:00 +20°C° 0 mm 1 mps 661 mmHg 97%
    01:00 +19°C° 0.1 mm 1 mps 661 mmHg 97%
    02:00 +19°C° 0.1 mm 1 mps 661 mmHg 97%
    03:00 +19°C° 0.1 mm 1 mps 661 mmHg 97%
    04:00 +19°C° 0 mm 1 mps 661 mmHg 97%
    05:00 +19°C° 0 mm 1 mps 661 mmHg 97%
    06:00 +19°C° 0 mm 1 mps 662 mmHg 97%
    07:00 +21°C° 0.1 mm 1 mps 663 mmHg 93%
    08:00 +22°C° 0.1 mm 1 mps 663 mmHg 89%
    09:00 +24°C° 0.1 mm 1 mps 664 mmHg 84%
    10:00 +23°C° 1.1 mm 1 mps 664 mmHg 86%
    11:00 +23°C° 1.1 mm 1 mps 663 mmHg 88%
    12:00 +23°C° 1.1 mm 1 mps 662 mmHg 90%
    13:00 +23°C° 1.6 mm 1 mps 662 mmHg 91%
    14:00 +23°C° 1.6 mm 1 mps 662 mmHg 92%
    15:00 +22°C° 1.6 mm 1 mps 662 mmHg 93%
    16:00 +22°C° 0.5 mm 1 mps 662 mmHg 95%
    17:00 +21°C° 0.5 mm 1 mps 662 mmHg 96%
    18:00 +20°C° 0.5 mm 1 mps 662 mmHg 98%
    19:00 +20°C° 0 mm 1 mps 662 mmHg 97%
    20:00 +19°C° 0 mm 1 mps 663 mmHg 97%
    21:00 +19°C° 0 mm 1 mps 663 mmHg 97%
    22:00 +19°C° 0 mm 1 mps 662 mmHg 96%
    23:00 +19°C° 0 mm 1 mps 662 mmHg 96%

    Tomorrow, 20 November, Wednesday

    Time Temperature Precipitation Wind Pressure Humidity
    00:00 +18°C° 0 mm 1 mps 661 mmHg 96%
    01:00 +18°C° 0 mm 1 mps 661 mmHg 96%
    02:00 +18°C° 0 mm 1 mps 661 mmHg 96%
    03:00 +18°C° 0 mm 1 mps 661 mmHg 96%
    04:00 +18°C° 0 mm 1 mps 661 mmHg 96%
    05:00 +18°C° 0 mm 1 mps 662 mmHg 96%
    06:00 +18°C° 0 mm 1 mps 662 mmHg 96%
    07:00 +20°C° 0 mm 1 mps 663 mmHg 89%
    08:00 +22°C° 0 mm 1 mps 664 mmHg 81%
    09:00 +24°C° 0 mm 1 mps 665 mmHg 74%
    10:00 +25°C° 0.2 mm 1 mps 664 mmHg 73%
    11:00 +25°C° 0.2 mm 1 mps 664 mmHg 73%
    12:00 +26°C° 0.2 mm 1 mps 663 mmHg 72%
    13:00 +25°C° 0.9 mm 1 mps 663 mmHg 78%
    14:00 +24°C° 0.9 mm 1 mps 662 mmHg 85%
    15:00 +23°C° 0.9 mm 1 mps 662 mmHg 91%
    16:00 +22°C° 0.3 mm 1 mps 661 mmHg 93%
    17:00 +21°C° 0.3 mm 1 mps 661 mmHg 95%
    18:00 +20°C° 0.3 mm 1 mps 661 mmHg 97%
    19:00 +19°C° 0 mm 1 mps 662 mmHg 97%
    20:00 +19°C° 0 mm 1 mps 662 mmHg 96%
    21:00 +18°C° 0 mm 1 mps 662 mmHg 96%
    22:00 +18°C° 0 mm 1 mps 662 mmHg 95%
    23:00 +18°C° 0 mm 1 mps 662 mmHg 94%

    Day after tomorrow, 21 November, Thursday

    Time Temperature Precipitation Wind Pressure Humidity
    00:00 +18°C° 0 mm 1 mps 661 mmHg 94%
    01:00 +18°C° 0 mm 1 mps 661 mmHg 93%
    02:00 +16°C° 0 mm 1 mps 661 mmHg 92%
    03:00 +16°C° 0 mm 1 mps 661 mmHg 91%
    04:00 +16°C° 0 mm 2 mps 661 mmHg 91%
    05:00 +16°C° 0 mm 2 mps 661 mmHg 90%
    06:00 +16°C° 0 mm 2 mps 662 mmHg 90%
    07:00 +20°C° 0 mm 1 mps 663 mmHg 80%
    08:00 +22°C° 0 mm 1 mps 664 mmHg 71%
    09:00 +25°C° 0 mm 1 mps 665 mmHg 62%
    10:00 +26°C° 0 mm 1 mps 664 mmHg 60%
    11:00 +26°C° 0 mm 2 mps 664 mmHg 58%
    12:00 +27°C° 0 mm 2 mps 664 mmHg 56%
    13:00 +26°C° 0.1 mm 2 mps 663 mmHg 61%
    14:00 +26°C° 0.1 mm 2 mps 663 mmHg 67%
    15:00 +25°C° 0.1 mm 1 mps 662 mmHg 72%
    16:00 +23°C° 0.1 mm 1 mps 662 mmHg 81%
    17:00 +21°C° 0.1 mm 1 mps 661 mmHg 89%
    18:00 +20°C° 0.1 mm 1 mps 661 mmHg 98%
    19:00 +19°C° 0 mm 1 mps 662 mmHg 97%
    20:00 +19°C° 0 mm 1 mps 662 mmHg 96%
    21:00 +18°C° 0 mm 1 mps 662 mmHg 95%
    22:00 +18°C° 0 mm 1 mps 662 mmHg 93%
    23:00 +16°C° 0 mm 1 mps 661 mmHg 91%

    22 November, Friday

    Time Temperature Precipitation Wind Pressure Humidity
    00:00 +15°C° 0 mm 1 mps 661 mmHg 89%
    01:00 +15°C° 0 mm 1 mps 661 mmHg 88%
    02:00 +15°C° 0 mm 1 mps 660 mmHg 87%
    03:00 +15°C° 0 mm 1 mps 660 mmHg 85%
    04:00 +15°C° 0 mm 2 mps 660 mmHg 84%
    05:00 +15°C° 0 mm 2 mps 661 mmHg 84%
    06:00 +16°C° 0 mm 2 mps 661 mmHg 83%
    07:00 +19°C° 0 mm 1 mps 662 mmHg 73%
    08:00 +22°C° 0 mm 1 mps 664 mmHg 64%
    09:00 +25°C° 0 mm 1 mps 665 mmHg 54%
    10:00 +26°C° 0 mm 1 mps 665 mmHg 54%
    11:00 +27°C° 0 mm 1 mps 664 mmHg 54%
    12:00 +27°C° 0 mm 2 mps 664 mmHg 54%
    13:00 +26°C° 0.1 mm 2 mps 663 mmHg 63%
    14:00 +25°C° 0.1 mm 2 mps 662 mmHg 72%
    15:00 +23°C° 0.1 mm 1 mps 661 mmHg 81%
    16:00 +22°C° 0.3 mm 1 mps 661 mmHg 87%
    17:00 +21°C° 0.3 mm 1 mps 661 mmHg 93%
    18:00 +18°C° 0.3 mm 0 mps 661 mmHg 99%
    19:00 +18°C° 0.1 mm 0 mps 662 mmHg 98%
    20:00 +18°C° 0.1 mm 0 mps 662 mmHg 97%
    21:00 +18°C° 0.1 mm 0 mps 663 mmHg 96%
    22:00 +17°C° 0 mm 0 mps 662 mmHg 96%
    23:00 +17°C° 0 mm 0 mps 662 mmHg 96%

    23 November, Saturday

    Time Temperature Precipitation Wind Pressure Humidity
    00:00 +18°C° 0 mm 1 mps 661 mmHg 95%
    01:00 +18°C° 0 mm 1 mps 661 mmHg 95%
    02:00 +18°C° 0 mm 1 mps 661 mmHg 95%
    03:00 +16°C° 0 mm 1 mps 660 mmHg 94%
    04:00 +16°C° 0 mm 1 mps 661 mmHg 94%
    05:00 +16°C° 0 mm 1 mps 661 mmHg 93%
    06:00 +16°C° 0 mm 1 mps 661 mmHg 93%
    07:00 +20°C° 0 mm 1 mps 662 mmHg 82%
    08:00 +22°C° 0 mm 1 mps 664 mmHg 72%
    09:00 +25°C° 0 mm 1 mps 665 mmHg 62%
    10:00 +25°C° 0 mm 1 mps 664 mmHg 61%
    11:00 +26°C° 0 mm 2 mps 664 mmHg 61%
    12:00 +27°C° 0 mm 2 mps 664 mmHg 60%
    13:00 +25°C° 0.4 mm 2 mps 663 mmHg 69%
    14:00 +24°C° 0.4 mm 1 mps 662 mmHg 78%
    15:00 +23°C° 0.4 mm 1 mps 661 mmHg 86%
    16:00 +22°C° 0.3 mm 1 mps 661 mmHg 90%
    17:00 +21°C° 0.3 mm 1 mps 661 mmHg 94%
    18:00 +18°C° 0.3 mm 0 mps 661 mmHg 98%
    19:00 +20°C° 0 mm 1 mps 662 mmHg 98%
    20:00 +19°C° 0 mm 1 mps 662 mmHg 98%
    21:00 +19°C° 0 mm 1 mps 662 mmHg 97%
    22:00 +19°C° 0 mm 1 mps 662 mmHg 97%
    23:00 +19°C° 0 mm 1 mps 662 mmHg 97%

    24 November, Sunday

    Time Temperature Precipitation Wind Pressure Humidity
    00:00 +18°C° 0 mm 1 mps 662 mmHg 96%
    01:00 +18°C° 0 mm 1 mps 661 mmHg 96%
    02:00 +18°C° 0 mm 1 mps 661 mmHg 96%
    03:00 +18°C° 0 mm 1 mps 660 mmHg 95%
    04:00 +16°C° 0 mm 1 mps 660 mmHg 95%
    05:00 +16°C° 0 mm 1 mps 661 mmHg 94%
    06:00 +16°C° 0 mm 1 mps 661 mmHg 93%
    07:00 +20°C° 0 mm 1 mps 662 mmHg 84%
    08:00 +22°C° 0 mm 1 mps 663 mmHg 74%
    09:00 +25°C° 0 mm 1 mps 664 mmHg 64%
    10:00 +26°C° 0 mm 1 mps 664 mmHg 61%
    11:00 +27°C° 0 mm 2 mps 664 mmHg 57%
    12:00 +27°C° 0 mm 2 mps 663 mmHg 54%
    13:00 +26°C° 0.2 mm 2 mps 662 mmHg 61%
    14:00 +25°C° 0.2 mm 2 mps 662 mmHg 68%
    15:00 +24°C° 0.2 mm 2 mps 661 mmHg 75%
    16:00 +23°C° 0.2 mm 1 mps 661 mmHg 82%
    17:00 +22°C° 0.2 mm 1 mps 661 mmHg 89%
    18:00 +20°C° 0.2 mm 1 mps 661 mmHg 96%
    19:00 +20°C° 0 mm 1 mps 661 mmHg 96%
    20:00 +19°C° 0 mm 1 mps 661 mmHg 96%
    21:00 +19°C° 0 mm 1 mps 661 mmHg 96%
    22:00 +18°C° 0 mm 1 mps 661 mmHg 96%
    23:00 +17°C° 0 mm 2 mps 661 mmHg 95%
    Show more